Location: Unspecified
(51.5147°N, 7.4673°E)
Time: 14:05:48
(UTC+01:00)

Vanguard 1 Rocket - Pass Details

Date: 22 February 2026
Orbit: 653 x 4214 km, 34.3° (Epoch: 11 March)

Event Time Altitude Azimuth Distance (km) Brightness Sun altitude
Rises 20:09:20 0° 268° (W) 6,584 13.2 -21.1°
Reaches altitude 10° 20:16:51 10° 248° (WSW) 6,276 12.4 -22.2°
Maximum altitude 20:25:32 14° 222° (SW) 6,512 12.0 -23.5°
Drops below altitude 10° 20:35:35 10° 198° (SSW) 7,305 12.0 -25.0°
Sets 20:46:27 0° 179° (S) 8,432 12.1 -26.7°
